Location: ?astrovice
(49.6513°N, 14.9287°E)
Time: 18:28:33
(UTC+00:00)

Meteor 1-27 - Pass Details

Date: 09 April 2020
Orbit: 837 x 893 km, 81.3° (Epoch: 03 June)

Event Time Altitude Azimuth Distance (km) Brightness Sun altitude
Exits shadow 21:05:17 58° 77° (ENE) 1,035 4.4 -27.0°
Drops below altitude 10° 21:10:38 10° 18° (NNE) 2,574 7.2 -27.5°
Sets 21:13:08 0° 15° (NNE) 3,519 8.0 -27.7°
